GFSFLT1_850_temp_000.txt.gz
Temp
17 18 19 19 18 17 17 16 15 14 14 14 14 14 13 13 13 12 13 12 12 12 11 11 10 10 9 10 9 9 9 9
17 17 17 18 16 16 15 14 14 14 14 14 13 13 12 12 13 12 12 12 11 11 10 9 9 9 9 9 9 9 8 8
15 15 15 15 15 14 14 14 14 13 13 12 12 12 12 12 12 11 11 11 10 10 8 8 8 8 8 8 8 8 7 7
14 14 14 14 13 13 13 13 13 13 13 13 12 12 12 11 11 11 10 10 9 8 7 7 7 7 7 6 6 6 5 5
14 14 14 14 13 13 13 13 13 13 13 13 12 12 11 11 10 9 9 8 8 7 7 7 7 6 5 5 4 4 4 4
15 14 14 14 13 13 13 13 13 12 12 12 11 11 10 9 9 8 7 7 7 7 6 6 5 4 3 3 2 2 2 2
15 15 14 13 13 13 12 12 12 11 11 11 10 10 9 8 7 6 6 6 5 5 5 4 3 3 2 1 1 1 0 -0
14 14 13 13 13 12 12 11 11 10 10 9 9 8 8 6 6 5 5 3 4 4 3 3 2 2 1 0 -0 -0 -1 -1
13 13 12 11 11 11 11 10 10 10 10 9 8 7 6 5 4 3 3 3 3 3 2 2 1 0 -0 -1 -1 -2 -2 -3
12 11 11 11 11 10 10 9 9 9 8 7 7 6 6 5 5 4 3 3 3 2 2 1 1 -0 -1 -2 -2 -3 -3 -3
11 10 10 9 9 9 8 8 7 7 6 6 6 6 5 5 4 4 4 3 2 2 1 1 -0 -1 -2 -3 -3 -3 -3 -4
9 8 8 8 8 7 6 6 6 5 5 5 5 5 5 4 3 3 2 2 -0 1 1 -0 -1 -2 -2 -3 -3 -3 -3 -4
8 8 8 7 7 7 6 6 6 5 5 4 4 3 3 3 3 2 1 0 0 -0 -1 -1 -2 -2 -3 -3 -3 -3 -4 -4
8 8 7 7 6 6 6 5 5 5 5 4 4 3 3 2 2 2 0 -1 -2 -3 -2 -2 -2 -3 -3 -3 -3 -4 -4 -5
8 7 6 6 6 5 5 5 5 4 4 4 3 2 1 1 1 -1 -2 -1 -2 -2 -2 -2 -2 -3 -3 -3 -4 -4 -5 -5
7 6 6 5 5 5 5 4 4 3 3 2 2 1 -0 -0 -1 -0 -1 -1 -2 -2 -2 -2 -3 -3 -3 -4 -4 -5 -6 -6
6 6 5 5 5 4 4 4 3 2 2 1 1 -0 -1 -2 -2 -2 -2 -2 -2 -3 -3 -3 -3 -4 -4 -5 -6 -6 -7 -8
6 5 5 5 4 4 4 3 2 2 1 1 0 -0 -1 -2 -3 -3 -2 -3 -3 -3 -3 -3 -4 -4 -5 -5 -6 -8 -9 -9
6 5 5 5 4 3 3 2 2 1 1 0 -0 -1 -2 -3 -3 -3 -4 -3 -4 -3 -3 -4 -4 -5 -6 -7 -8 -9 -10 -10

GFSFLT1_850_temp_003.txt.gz
Temp
17 18 18 18 17 17 16 15 15 12 13 12 13 13 13 12 12 12 12 12 12 12 11 10 10 9 9 9 9 9 8 8
16 17 17 18 17 16 16 15 14 12 11 12 12 12 11 12 12 12 11 11 10 11 10 10 9 8 8 7 7 7 7 7
15 15 16 16 16 15 15 14 12 12 12 11 11 11 12 12 11 11 11 11 10 10 9 8 7 7 7 7 7 6 6 5
14 15 15 14 14 13 13 13 13 13 12 12 12 12 11 11 11 11 10 9 8 8 7 7 7 7 6 6 5 4 3 3
14 14 13 13 14 14 13 13 13 12 12 12 11 11 11 10 10 9 8 7 7 6 6 6 6 6 5 4 3 2 2 1
14 14 14 14 13 13 12 12 12 11 11 11 10 10 10 9 8 7 6 6 5 5 5 5 5 4 3 2 2 1 0 -0
13 13 13 13 12 12 11 11 11 11 10 10 9 9 8 7 7 6 5 4 4 4 5 4 4 3 3 2 1 -0 -1 -1
14 13 12 12 11 11 11 11 11 10 10 10 9 9 8 7 6 5 5 5 5 4 4 3 3 2 1 0 -1 -1 -2 -2
13 12 11 11 11 11 11 10 10 9 8 7 7 6 6 5 5 4 4 4 4 3 2 2 1 1 0 -1 -1 -2 -3 -3
11 11 10 10 10 10 9 9 8 7 6 5 5 5 4 4 3 3 3 3 3 2 -0 -1 -1 -2 -1 -2 -2 -3 -3 -4
10 9 9 9 9 9 8 7 7 6 6 5 5 4 3 3 3 2 2 2 2 1 -0 -2 -2 -3 -2 -2 -3 -3 -3 -4
8 8 8 8 8 7 6 6 5 5 5 4 4 4 3 3 2 2 2 1 0 -1 -2 -3 -3 -2 -2 -3 -3 -3 -4 -4
8 7 7 7 6 6 6 5 5 5 4 4 3 3 2 2 1 1 0 -1 -2 -2 -2 -2 -2 -2 -3 -3 -3 -4 -4 -4
7 7 6 6 5 5 5 5 5 4 4 3 3 2 1 1 0 -0 -0 -1 -1 -1 -2 -3 -3 -3 -3 -3 -4 -4 -4 -5
7 6 6 6 5 5 5 4 4 4 3 3 2 1 0 -0 -1 -2 -2 -2 -2 -2 -2 -2 -3 -3 -3 -4 -4 -4 -5 -6
6 6 5 5 5 5 4 4 4 3 3 2 1 0 -0 -1 -1 -2 -3 -3 -3 -3 -2 -3 -3 -3 -3 -4 -5 -5 -6 -7
6 6 5 5 5 4 4 4 3 3 2 1 0 -0 -1 -1 -2 -3 -4 -4 -3 -3 -3 -3 -3 -3 -4 -5 -5 -6 -7 -8
6 6 5 5 4 4 3 3 3 2 1 0 -0 -1 -2 -2 -3 -3 -3 -3 -3 -4 -3 -3 -3 -4 -4 -5 -6 -7 -8 -9
6 5 5 4 4 3 2 2 2 1 0 -0 -1 -2 -2 -2 -3 -3 -4 -4 -4 -3 -3 -4 -4 -4 -5 -6 -7 -8 -9 -10

GFSFLT1_850_temp_006.txt.gz
Temp
16 16 17 17 17 16 15 15 13 12 12 10 9 11 11 11 11 11 11 11 11 11 11 10 9 9 8 8 8 8 7 7
15 15 16 16 15 14 15 15 14 13 10 10 10 10 11 11 11 11 11 11 10 10 9 9 8 8 7 7 7 7 7 6
14 14 14 13 12 12 13 13 12 11 10 11 11 12 11 11 11 11 10 10 9 9 8 8 7 6 6 6 6 5 5 4
13 13 14 14 14 13 13 12 12 12 12 12 12 11 11 10 10 10 10 9 8 7 7 6 6 5 5 5 5 5 4 3
14 14 14 14 13 13 12 12 12 12 12 11 11 10 10 10 9 9 8 7 6 6 5 5 6 5 4 4 3 3 2 1
14 13 13 13 12 12 12 11 11 11 11 10 10 9 9 8 8 7 6 5 5 5 5 4 4 3 3 3 2 2 1 -1
13 13 13 12 12 12 11 11 11 10 10 9 9 8 7 6 6 5 5 4 4 4 4 4 3 2 1 1 0 0 -1 -2
12 11 12 11 11 11 11 10 10 9 9 8 7 6 5 4 4 4 4 3 3 3 3 2 1 0 -1 -1 -2 -2 -2 -3
10 11 12 11 11 10 9 9 9 8 7 6 6 5 5 4 4 3 3 3 2 2 2 1 2 1 -1 -2 -3 -2 -3 -3
10 10 10 10 10 10 9 9 8 7 6 6 5 5 4 4 3 3 3 3 2 2 1 1 -1 -1 -3 -4 -3 -3 -3 -4
9 9 9 9 10 9 8 8 7 6 5 5 4 4 3 3 3 3 3 2 1 0 -1 -0 -2 -2 -3 -3 -3 -3 -3 -4
8 9 9 9 9 9 9 7 6 5 5 4 4 3 3 2 2 2 1 0 -0 -1 -1 -1 -2 -3 -3 -3 -3 -3 -4 -4
8 8 8 8 7 7 6 5 5 5 4 3 3 2 2 1 1 1 0 -1 -1 -1 -2 -2 -3 -3 -3 -3 -3 -4 -4 -4
8 7 7 6 6 6 5 4 5 4 3 3 2 2 1 0 0 -0 -1 -2 -2 -3 -3 -3 -2 -3 -3 -3 -4 -4 -4 -5
7 6 6 6 6 4 4 5 4 4 3 2 2 1 0 -0 -0 -1 -2 -3 -3 -4 -3 -3 -3 -3 -3 -3 -4 -4 -5 -5
7 6 6 6 5 5 5 4 4 3 2 2 1 0 -0 -1 -1 -2 -2 -3 -4 -3 -3 -3 -3 -3 -3 -4 -4 -4 -5 -6
6 6 6 6 5 5 4 4 3 2 2 1 0 -0 -1 -1 -2 -3 -3 -4 -4 -4 -3 -3 -3 -3 -4 -4 -5 -5 -6 -7
6 6 6 5 5 4 3 3 2 2 1 1 -0 -1 -2 -2 -3 -3 -4 -4 -4 -4 -4 -4 -4 -4 -5 -5 -5 -6 -6 -8
6 6 5 5 4 3 3 2 2 1 0 -0 -1 -2 -3 -3 -3 -4 -4 -4 -4 -4 -4 -4 -4 -5 -5 -6 -6 -6 -7 -8

GFSFLT1_850_temp_009.txt.gz
Temp
16 16 16 16 16 15 14 14 14 14 13 11 11 11 10 10 11 11 11 11 11 10 10 9 9 8 8 7 7 7 6 6
15 15 15 15 14 14 13 12 13 12 12 11 10 10 11 11 12 11 11 10 10 9 9 8 8 7 7 6 6 6 6 6
14 14 13 13 13 13 13 13 12 12 11 11 11 11 11 11 11 10 10 9 9 8 7 6 6 6 5 5 5 5 4 4
12 12 13 13 13 12 12 12 11 11 11 11 11 11 10 10 10 9 9 8 7 6 5 5 5 5 4 3 3 3 2 2
12 12 12 12 12 12 11 11 11 11 11 10 10 10 9 9 9 8 7 6 5 5 5 5 4 4 3 3 2 2 1 -0
12 13 13 12 12 11 11 11 11 10 10 10 9 9 8 7 6 5 5 5 5 4 4 4 4 3 2 2 1 0 -0 -0
12 12 12 12 12 11 11 11 10 10 9 9 9 8 7 6 5 5 5 5 4 4 4 3 3 2 1 1 0 -0 -1 -2
11 11 11 11 11 11 11 10 10 9 8 8 7 7 6 5 5 5 4 4 4 3 3 2 2 1 0 -1 -1 -2 -2 -3
11 11 11 11 11 10 10 10 9 8 8 7 6 6 5 4 4 3 3 3 3 3 2 1 0 0 -1 -1 -3 -3 -3 -3
10 10 9 9 9 9 9 9 8 7 6 5 5 4 4 4 3 3 3 3 2 2 1 -0 -0 -1 -1 -2 -2 -3 -3 -3
9 8 8 8 9 8 8 7 7 6 5 5 5 4 4 3 3 2 2 2 1 0 -1 -1 -2 -2 -2 -3 -3 -3 -3 -4
8 8 8 8 8 7 7 7 6 6 5 4 4 4 3 2 2 1 1 1 0 -1 -1 -2 -2 -2 -3 -3 -3 -3 -4 -4
7 8 8 7 7 7 7 6 5 5 4 4 3 3 2 1 1 0 -0 -1 -1 -2 -2 -3 -3 -3 -3 -3 -3 -3 -4 -4
7 7 7 7 7 7 6 5 5 4 4 3 2 2 1 0 -0 -1 -1 -1 -2 -3 -3 -4 -4 -3 -3 -3 -3 -4 -4 -4
7 7 7 7 7 6 5 5 4 4 3 3 2 1 0 -0 -1 -1 -2 -2 -3 -3 -4 -4 -4 -3 -3 -3 -3 -4 -4 -5
7 7 7 7 6 5 5 5 4 3 3 2 1 0 -0 -1 -1 -2 -2 -3 -4 -4 -4 -4 -3 -3 -3 -4 -4 -4 -5 -6
7 7 7 6 6 6 5 4 3 3 2 2 1 -0 -1 -1 -2 -2 -3 -3 -4 -4 -4 -4 -4 -4 -5 -4 -5 -5 -6 -6
7 7 7 6 6 5 4 4 3 2 2 1 0 -1 -1 -2 -2 -3 -3 -4 -4 -4 -4 -4 -4 -4 -5 -5 -5 -6 -6 -7
7 7 6 6 5 4 4 3 3 2 1 1 -0 -1 -2 -2 -3 -3 -3 -3 -3 -4 -4 -4 -4 -5 -5 -5 -6 -6 -7 -7

GFSFLT1_850_temp_012.txt.gz
Temp
15 16 16 15 14 12 13 14 14 13 12 11 12 11 11 11 10 10 10 10 10 10 9 9 8 7 7 6 6 6 6 5
13 15 15 15 15 14 13 13 12 12 11 12 12 11 11 10 10 10 10 10 9 9 7 6 6 6 6 5 5 6 5 5
12 12 12 12 11 11 11 11 11 10 10 10 10 9 9 10 11 10 9 9 8 7 7 6 5 5 5 4 4 4 5 4
13 12 12 11 11 11 11 11 10 10 10 10 11 11 10 9 8 8 8 8 7 6 6 5 5 4 4 3 3 2 3 3
13 12 12 12 11 11 10 10 10 11 10 10 10 10 10 8 7 6 6 6 6 5 4 4 4 3 3 2 2 1 1 2
13 13 12 11 11 10 10 10 11 10 10 10 9 9 7 6 6 5 5 5 4 4 3 3 3 2 2 1 0 0 0 0
13 12 11 10 9 10 9 9 10 10 10 9 9 8 7 6 5 5 5 4 4 4 3 2 1 1 0 -0 -1 -1 -1 -1
12 11 11 10 8 8 8 8 9 9 8 8 8 7 6 5 4 4 3 3 3 3 2 1 1 0 -1 -1 -2 -1 -2 -2
12 11 10 9 8 8 8 8 7 7 7 7 6 6 5 4 3 3 2 2 1 1 1 0 -0 -1 -2 -1 -2 -2 -2 -2
12 10 9 8 8 7 7 7 7 6 6 5 5 5 4 4 2 1 1 1 0 0 -0 -1 -1 -1 -2 -2 -1 -2 -2 -2
11 9 8 8 7 8 8 6 6 6 5 5 5 4 4 3 2 1 1 1 -0 -0 -1 -1 -1 -2 -2 -2 -2 -2 -2 -2
10 9 8 7 7 8 7 6 6 5 4 4 4 4 3 3 1 0 -0 -0 -1 -1 -1 -1 -2 -2 -2 -2 -2 -2 -3 -3
10 8 7 7 7 6 6 6 5 5 4 4 4 4 3 1 0 -1 -1 -2 -2 -2 -2 -2 -3 -3 -3 -3 -3 -2 -3 -3
9 8 7 7 6 6 6 5 5 4 4 4 3 2 1 0 -0 -1 -2 -2 -2 -3 -2 -2 -3 -3 -3 -3 -3 -3 -3 -4
9 8 7 7 6 6 5 6 5 5 4 3 2 1 1 -0 -1 -1 -2 -2 -3 -2 -3 -3 -3 -3 -3 -3 -4 -4 -4 -5
9 8 7 7 6 5 6 5 5 4 4 3 2 1 0 -0 -1 -2 -2 -3 -3 -3 -4 -4 -4 -4 -4 -4 -5 -5 -5 -6
8 8 8 7 6 6 5 4 4 4 3 2 1 1 -0 -1 -1 -2 -2 -3 -3 -3 -3 -4 -4 -5 -4 -4 -5 -5 -6 -7
9 8 8 7 6 5 5 4 4 4 3 2 1 1 -1 -1 -2 -2 -2 -3 -3 -3 -3 -4 -4 -5 -4 -5 -5 -6 -7 -8
9 8 7 6 6 5 4 4 4 3 3 2 1 -1 -1 -1 -2 -2 -2 -3 -3 -3 -3 -4 -5 -5 -5 -5 -6 -6 -8 -8